N1LTP Weather Reports


Display with metric or nautical units.
time (UTC)temp
F
wind
direction
speed
MPH
gust
MPH
rain 1hr
in
rain 24hr
in
rain mn
in
humidity
%
barometer
mb
20260906164558 64 180 0.0 8.0 0.00 0.04 0.04 77 1014.3
20260906163121 64 280 1.0 6.0 0.00 0.04 0.04 79 1014.5
20260906161556 64 94 2.0 8.0 0.00 0.04 0.04 77 1014.5
20260906160056 64 84 0.0 4.0 0.00 0.04 0.04 80 1014.6
20260906154556 64 109 0.0 3.0 0.00 0.04 0.04 81 1014.7
20260906153056 65 86 2.0 5.0 0.00 0.04 0.04 79 1014.7
20260906151551 64 111 1.0 6.0 0.00 0.04 0.04 81 1014.6
20260906150050 64 261 0.0 5.0 0.00 0.04 0.04 82 1014.7
20260906144548 63 180 0.0 4.0 0.00 0.04 0.04 84 1014.7
20260906143050 62 306 0.0 7.0 0.00 0.04 0.04 86 1014.7
20260906141541 61 193 0.0 2.0 0.00 0.04 0.04 87 1014.6
20260906140049 61 281 0.0 4.0 0.00 0.04 0.04 88 1014.7
20260906134542 61 277 0.0 5.0 0.00 0.04 0.04 88 1014.7
20260906133039 60 289 0.0 4.0 0.00 0.04 0.04 89 1014.6
20260906131538 60 312 0.0 4.0 0.00 0.04 0.04 90 1014.7
20260906130041 60 289 2.0 4.0 0.01 0.04 0.04 90 1014.5
20260906124538 60 311 3.0 8.0 0.01 0.04 0.04 90 1014.5
20260906123034 60 306 0.0 3.0 0.01 0.04 0.04 90 1014.5
20260906121533 59 307 2.0 4.0 0.01 0.04 0.04 90 1014.4
20260906120030 59 312 0.0 3.0 0.00 0.03 0.03 90 1014.2
20260906114530 59 350 0.0 2.0 0.00 0.03 0.03 90 1014.1
20260906113028 59 34 0.0 2.0 0.01 0.03 0.03 90 1014.0
20260906111526 59 110 0.0 0.0 0.02 0.03 0.03 89 1013.8
20260906110023 59 110 0.0 0.0 0.02 0.03 0.03 89 1013.5
20260906104524 59 110 0.0 0.0 0.03 0.03 0.03 89 1013.3
20260906103021 59 110 0.0 0.0 0.02 0.02 0.02 88 1013.3
20260906101519 59 110 0.0 1.0 0.01 0.01 0.01 88 1013.3
20260906100018 59 110 0.0 6.0 0.01 0.01 0.01 87 1013.2
20260906094517 60 58 0.0 3.0 0.00 0.00 0.00 87 1013.2
20260906093027 60 84 0.0 3.0 0.00 0.00 0.00 89 1012.8
20260906091509 61 56 0.0 1.0 0.00 0.00 0.00 90 1012.5
20260906090010 61 56 0.0 1.0 0.00 0.00 0.00 90 1012.3
20260906084513 61 56 0.0 1.0 0.00 0.00 0.00 90 1012.4
20260906083007 61 56 0.0 0.0 0.00 0.00 0.00 90 1012.1
20260906081507 61 56 0.0 1.0 0.00 0.00 0.00 90 1012.0
20260906080007 61 56 0.0 0.0 0.00 0.00 0.00 90 1012.0
20260906074506 60 56 0.0 1.0 0.00 0.00 0.00 90 1011.8
20260906073005 60 56 0.0 2.0 0.00 0.00 0.00 90 1011.8
20260906071504 60 56 0.0 1.0 0.00 0.00 0.00 89 1011.9
20260906070003 60 56 0.0 1.0 0.00 0.00 0.00 89 1012.0
20260906064503 60 56 0.0 0.0 0.00 0.00 0.00 89 1011.9
20260906063002 60 56 0.0 0.0 0.00 0.00 0.00 88 1011.9
20260906061501 60 56 0.0 0.0 0.00 0.00 0.00 88 1012.0
20260906060104 61 56 0.0 0.0 0.00 0.00 0.00 87 1012.0
20260906054558 61 56 0.0 1.0 0.00 0.00 0.00 87 1012.0
20260906053057 61 56 0.0 0.0 0.00 0.00 0.00 87 1012.2
20260906051558 61 56 0.0 0.0 0.00 0.00 0.00 86 1012.3
20260906050055 61 56 0.0 0.0 0.00 0.00 0.00 86 1012.3
20260906044553 61 56 0.0 0.0 0.00 0.00 0.00 85 1012.2
20260906043054 61 56 0.0 0.0 0.00 0.00 0.00 85 1012.1
20260906041551 62 56 0.0 0.0 0.00 0.00 0.00 85 1012.1
20260906040051 62 56 0.0 0.0 0.00 0.00 0.00 85 1012.1
20260906034549 62 56 0.0 0.0 0.00 0.00 0.00 85 1012.0
20260906033049 62 56 0.0 0.0 0.00 0.00 0.00 85 1011.9
20260906031549 62 56 0.0 0.0 0.00 0.00 0.00 84 1011.8
20260906030051 62 56 0.0 0.0 0.00 0.00 0.00 84 1011.9
20260906024548 62 56 0.0 0.0 0.00 0.00 0.00 84 1011.9
20260906023048 63 56 0.0 0.0 0.00 0.00 0.00 83 1011.8
20260906021553 63 56 0.0 0.0 0.00 0.00 0.00 83 1011.9
20260906020045 63 56 0.0 0.0 0.00 0.00 0.00 83 1011.9
20260906014548 63 56 0.0 0.0 0.00 0.00 0.00 83 1011.9
20260906013045 63 56 0.0 0.0 0.00 0.00 0.00 83 1012.0
20260906011551 63 56 0.0 2.0 0.00 0.00 0.00 83 1011.9
20260906010043 64 59 0.0 1.0 0.00 0.00 0.00 83 1011.9
20260906004543 64 59 0.0 0.0 0.00 0.00 0.00 82 1011.7
20260906003040 64 59 0.0 0.0 0.00 0.00 0.00 82 1011.5
20260906001539 64 59 0.0 0.0 0.00 0.00 0.00 81 1011.4
20260906000040 64 59 0.0 0.0 0.00 0.00 0.00 81 1011.1
20260905234536 64 59 0.0 0.0 0.00 0.00 0.00 80 1011.1
20260905233053 65 59 0.0 3.0 0.00 0.00 0.00 80 1011.0
20260905231548 65 59 0.0 1.0 0.00 0.00 0.00 79 1011.1
20260905230034 65 59 0.0 2.0 0.00 0.00 0.00 79 1011.0
20260905224541 66 58 1.0 5.0 0.00 0.00 0.00 79 1011.1
20260905223033 66 76 0.0 6.0 0.00 0.00 0.00 78 1011.0
20260905221537 67 103 1.0 7.0 0.00 0.00 0.00 77 1010.9
20260905220030 67 57 1.0 10.0 0.00 0.00 0.00 77 1010.8
20260905214527 68 69 4.0 9.0 0.00 0.00 0.00 77 1010.4
20260905213033 68 96 3.0 8.0 0.00 0.00 0.00 77 1010.2
20260905211528 68 76 3.0 11.0 0.00 0.00 0.00 76 1010.1
20260905210028 69 80 5.0 10.0 0.00 0.00 0.00 75 1010.0
20260905204523 69 88 2.0 8.0 0.00 0.00 0.00 76 1010.0
20260905203020 69 94 2.0 9.0 0.00 0.00 0.00 74 1009.8
20260905201525 69 76 1.0 10.0 0.00 0.00 0.00 75 1009.6
20260905200018 70 116 2.0 11.0 0.00 0.00 0.00 74 1009.6
20260905194517 69 77 1.0 7.0 0.00 0.00 0.00 75 1009.5
20260905193017 69 281 0.0 8.0 0.00 0.00 0.00 76 1009.4
20260905191516 70 121 2.0 8.0 0.00 0.00 0.00 75 1009.5
20260905190015 71 108 2.0 7.0 0.00 0.00 0.00 75 1009.4
20260905184520 71 94 2.0 6.0 0.00 0.00 0.00 75 1009.4
20260905183014 71 98 2.0 6.0 0.00 0.00 0.00 75 1009.6
20260905181513 70 94 2.0 8.0 0.00 0.00 0.00 75 1009.7
20260905180012 70 98 1.0 12.0 0.00 0.00 0.00 76 1009.4
20260905174514 69 103 3.0 8.0 0.00 0.00 0.00 76 1009.4
20260905173023 69 89 2.0 5.0 0.00 0.00 0.00 76 1009.3
20260905171511 69 101 3.0 8.0 0.00 0.00 0.00 75 1009.3
20260905170007 70 152 2.0 7.0 0.00 0.00 0.00 74 1009.2